Theta_e
304 304 306 305 306 306 306 307 308 310 311 312 313 314 315 314 313 314 315 314 315 313
303 304 305 305 306 306 306 306 307 309 311 312 313 314 314 313 312 313 315 313 314 313
302 304 305 305 305 305 306 305 307 308 310 311 312 313 313 312 312 312 313 313 312 312
302 303 304 304 305 305 305 306 307 308 309 310 311 312 312 312 311 311 311 312 311 311
302 302 302 303 304 305 304 306 307 307 308 310 311 311 311 310 310 310 310 311 310 309
301 301 301 303 303 304 304 305 306 306 307 309 310 311 312 311 310 310 311 311 310 308
300 301 301 302 303 303 304 304 305 306 306 308 309 311 311 311 310 310 310 310 312 309
300 301 301 302 302 303 303 304 305 306 306 307 307 309 311 310 310 310 309 309 309 309
300 300 300 301 301 302 302 303 304 305 305 305 306 300 298 304 309 309 309 308 308 305
299 298 299 300 300 300 301 302 303 305 305 305 306 298 298 295 308 308 309 308 306 301
297 297 298 298 298 299 300 301 302 304 305 305 304 297 296 294 305 308 309 307 306 303
297 297 297 296 297 299 299 300 302 303 304 303 304 295 293 296 302 304 306 306 305 304
297 296 296 296 297 297 299 298 298 299 302 294 301 293 294 295 299 300 298 300 302 289
295 295 297 296 295 295 295 293 293 292 293 294 295 298 295 294 296 298 291 292 290 292
Wind_Speed
7 5 5 6 5 4 3 3 3 2 2 1 2 1 2 2 2 3 3 6 5 5
7 6 6 6 5 4 4 4 3 2 2 2 1 1 1 1 2 2 4 5 6 6
8 7 6 6 6 6 5 5 4 3 2 2 1 1 1 2 3 3 3 4 5 7
7 8 7 6 6 6 5 5 5 4 3 2 2 1 1 3 2 4 4 6 7 7
8 8 8 7 7 6 6 5 5 4 3 3 2 2 1 3 2 4 5 5 7 8
8 8 9 8 7 7 6 6 5 4 4 3 4 3 2 3 3 3 4 4 8 7
9 8 8 8 8 7 7 6 5 5 4 3 3 3 4 3 3 3 4 2 5 7
8 7 7 7 7 6 6 6 6 5 5 4 3 1 4 4 4 3 4 5 5 4
9 8 8 7 7 7 7 7 6 6 6 5 3 4 1 3 4 4 4 5 5 5
9 8 8 7 8 7 8 7 7 7 6 5 5 6 4 4 3 4 5 5 6 5
8 8 7 7 8 8 6 7 6 6 6 5 3 6 5 4 5 5 4 5 5 6
10 9 8 8 7 6 6 6 6 5 7 6 4 5 3 3 4 4 5 4 6 7
8 9 9 7 6 4 4 4 3 3 2 3 1 4 3 2 2 4 3 4 4 7
6 7 7 7 4 5 4 4 4 3 2 1 3 3 3 2 2 3 2 4 3 3
Wind_Direction
178 182 184 184 170 177 173 164 161 154 110 38 46 349 321 27 24 13 58 68 81 96
177 184 182 170 172 161 164 158 174 184 166 132 127 61 286 83 72 71 81 87 100 106
177 177 181 173 180 174 168 168 178 186 191 128 86 90 56 110 109 124 105 115 112 119
169 176 180 183 177 180 169 177 177 185 184 153 162 117 80 101 112 129 125 132 134 117
172 173 182 190 180 174 183 180 172 185 191 170 171 157 111 108 105 131 136 132 120 130
177 180 190 190 180 174 180 180 176 182 193 186 163 184 156 118 123 122 137 149 141 136
184 185 189 185 182 175 179 183 187 186 180 195 160 197 158 148 142 138 129 98 129 140
181 183 180 179 182 177 178 184 188 183 186 192 186 175 187 167 165 161 156 151 153 145
179 179 178 176 178 177 181 183 186 197 191 193 188 152 232 213 175 185 187 179 158 146
176 178 179 175 173 183 185 187 195 197 197 203 201 171 186 225 223 199 202 191 173 148
171 171 170 166 179 185 185 190 195 194 196 202 201 183 205 199 220 223 202 182 191 173
176 168 168 174 182 177 182 184 192 191 194 204 215 178 237 216 205 226 200 193 177 183
167 163 168 169 167 140 176 169 116 150 141 131 164 133 207 263 250 222 202 186 189 193
150 156 162 147 117 150 137 137 168 186 161 195 218 197 188 228 235 230 195 195 206 190